Location: St Paul
(33.9360°N, 83.4200°W)
Time: 05:29:50
(UTC-04:00)

SL-14 R/B - Pass Details

Date: 06 October 2017
Orbit: 517 x 557 km, 82.4° (Epoch: 23 October)

Event Time Altitude Azimuth Distance (km) Brightness Sun altitude
Rises 20:28:18 0° 357° (N) 2,647 6.9 -16.9°
Reaches altitude 10° 20:30:29 10° 2° (N) 1,752 5.9 -17.3°
Maximum altitude 20:34:16 59° 82° (E) 601 3.1 -18.1°
Enters shadow 20:35:53 31° 150° (SSE) 926 4.1 -18.5°
